TimeCST,TemperatureF,Dew PointF,Humidity,Sea Level PressureIn,VisibilityMPH,Wind Direction,Wind SpeedMPH,Gust SpeedMPH,PrecipitationIn,Events,Conditions,WindDirDegrees,DateUTC
12:53 AM,37.9,32.0,79,29.97,10.0,NNW,5.8,-,N/A,,Clear,330,2013-02-05 06:53:00
1:53 AM,35.1,30.9,85,29.95,10.0,NNW,4.6,-,N/A,,Clear,330,2013-02-05 07:53:00
2:53 AM,30.9,28.9,92,29.94,10.0,NW,4.6,-,N/A,,Clear,310,2013-02-05 08:53:00
3:53 AM,30.9,28.9,92,29.94,10.0,NNW,4.6,-,N/A,,Clear,330,2013-02-05 09:53:00
4:53 AM,32.0,30.0,92,29.94,10.0,NNW,4.6,-,N/A,,Clear,340,2013-02-05 10:53:00
5:53 AM,30.9,28.0,89,29.97,10.0,NW,5.8,-,N/A,,Clear,310,2013-02-05 11:53:00
6:53 AM,30.0,28.0,92,29.99,10.0,Calm,Calm,-,N/A,,Clear,0,2013-02-05 12:53:00
7:53 AM,33.1,30.0,89,30.00,7.0,Calm,Calm,-,N/A,,Clear,0,2013-02-05 13:53:00
8:53 AM,37.0,30.9,79,30.01,7.0,Calm,Calm,-,N/A,,Clear,0,2013-02-05 14:53:00
9:41 AM,42.8,33.8,70,30.02,7.0,Calm,Calm,-,N/A,,Partly Cloudy,0,2013-02-05 15:41:00
9:53 AM,42.1,34.0,73,30.02,8.0,Calm,Calm,-,N/A,,Partly Cloudy,0,2013-02-05 15:53:00
10:53 AM,51.8,37.4,58,30.03,10.0,Calm,Calm,-,N/A,,Partly Cloudy,0,2013-02-05 16:53:00
11:53 AM,57.2,42.8,59,30.04,8.0,Variable,3.5,-,N/A,,Partly Cloudy,0,2013-02-05 17:53:00
12:53 PM,62.1,37.9,41,30.00,10.0,Variable,3.5,-,N/A,,Clear,0,2013-02-05 18:53:00
1:53 PM,66.0,36.0,33,29.98,10.0,Calm,Calm,-,N/A,,Clear,0,2013-02-05 19:53:00
2:53 PM,68.0,32.0,26,29.97,10.0,Variable,3.5,-,N/A,,Clear,0,2013-02-05 20:53:00
3:53 PM,66.9,28.9,24,29.97,9.0,WNW,3.5,-,N/A,,Clear,290,2013-02-05 21:53:00
4:53 PM,66.0,30.9,27,29.98,10.0,NW,5.8,-,N/A,,Clear,310,2013-02-05 22:53:00
5:53 PM,61.0,30.0,31,29.98,10.0,NNE,3.5,-,N/A,,Clear,20,2013-02-05 23:53:00
6:53 PM,57.9,33.1,39,30.00,10.0,NE,4.6,-,N/A,,Clear,50,2013-02-06 00:53:00
7:53 PM,54.0,33.1,45,30.01,10.0,ESE,5.8,-,N/A,,Clear,110,2013-02-06 01:53:00
8:53 PM,51.1,33.1,50,30.02,10.0,ESE,4.6,-,N/A,,Clear,110,2013-02-06 02:53:00
9:53 PM,50.0,32.0,50,30.04,10.0,Calm,Calm,-,N/A,,Clear,0,2013-02-06 03:53:00
10:53 PM,48.9,33.1,54,30.04,10.0,SSE,4.6,-,N/A,,Clear,150,2013-02-06 04:53:00
11:53 PM,46.9,33.1,59,30.05,10.0,East,3.5,-,N/A,,Clear,100,2013-02-06 05:53:00